Tracking 30995 objects as of 7-Jul-2025
HD Live streaming from Space Station
objects crossing your sky now

STARLINK-31386

Track STARLINK-31386 now!
10-day predictions
STARLINK-31386 is classified as:


NORAD ID: 59298
Int'l Code: 2024-056C
Perigee: 489.4 km
Apogee: 491.0 km
Inclination: 43.0 °
Period: 94.3 minutes
Semi major axis: 6861 km
RCS: Unknown
Launch date: March 24, 2024
Source: United States (US)
Launch site: AIR FORCE EASTERN TEST RANGE (AFETR)
Your satellite tracking list
Your tracking list is empty




NASA's NSSDC Master Catalog

Two Line Element Set (TLE):
1 59298U 24056C   25187.43805872 -.00002129  00000-0 -67867-4 0  9994
2 59298  43.0003 181.3816 0001185 228.4151 131.6599 15.27577001 73493
Source of the keplerian elements: AFSPC